DELTA 1 DEB, 7180

Orbit data source: Space-Track

DELTA 1 DEB, 7180 is space debris in SSO originally from a launch on Tue, 06 Nov 1973 UTC launched from the Air Force Western Test Range (AFWTR). Debris objects in space refer to the collection of defunct objects orbiting the Earth. Examples of debris include non-operational satellites, rocket bodies, and fragments generated from explosions, collisions, or faulty payload assembly.

Loading next visibility...
Identifier
7180, 1973-086ER
Orbit
SSO
Country
Flag of USUS
Related business
Manufacturer
Unknown
Mission
Spacecraft
Bus & Motor
Unknown
Mass
Unknown
Launch date (UTC)
1973-11-06 (53 years ago)
Launch vehicle
Unknown
Launch site
Air Force Western Test Range (AFWTR)
Object type
Payload
Rocket body
Debris
Shape & HBR
Unknown shape, 0.1 m
Radar Cross Section
Medium (>0.1 m² and <1 m²)

Expand to show TLE details & history
Last TLE update: 16 hours ago

TLE from 16 hours ago
0 DELTA 1 DEB
1 07180U 73086ER  26254.28989267  .00000789  00000-0  35570-2 0  9996
2 07180 102.2393   6.5516 0145864 334.4095  50.0707 12.79507630451703
Epoch: 2026-09-11T06:57Z
TLE epoch observation values (Epoch: 2026-09-11T06:57:26.726Z)
Latitude
25.18042°
Longitude
-93.9492°
Altitude
1,274.891 km
Speed
7.254 km/s
True Right ascension
00h 02m 54s
True Declination
25° 03' 26"
Sunlit
Object was in full shadow at epoch
Visualization orbit readout
Latitude
Unknown
Longitude
Unknown
Altitude
Unknown
Speed
Unknown
Apparent Right ascension
Unknown
Apparent Declination
Unknown
Sunlit
N/A
Visualization observer readout
Local Sidereal Time
15:41:53
Azimuth
Unknown
Elevation
Unknown
Doppler factor
Unknown
Orbital elements
Apogee altitude
1,453.582 km
Perigee altitude
1,228.393 km
Semi-major axis
7,719.125 km
Eccentricity
0.01459
Inclination
102.2393°
RAAN
6.5516°
Arg. of periapsis
334.4095°
True anomaly
51.36751°
Mean anomaly
50.0707°
Eccentric anomaly
50.71759°
Mean motion
3.2003 °/min
Orbital period
112.49 mins
BSTAR
0.003557
Loading maneuver chart data...
Computing Atmospheric mass density...
Loading historical data...
Loading historical data...
Loading historical data...
Loading historical data...
Loading historical data...
Loading historical data...
Loading historical data...

Documentation

Showing up to 5 results
|